This is the latest recevied weather packets stored in our database for station/object W9KHP-1. If no packets are shown the sender has not sent any weather packets the latest 10 day(s).
| Time | Temp. | Humidity | Pressure | Rain* | Wind** | Luminosity | Snow |
|---|---|---|---|---|---|---|---|
| 1777733788 | 9.44° C | 87% | 1021.1 hPa | 0 mm | - | 114 W/m² | - |
| 1777733485 | 9.44° C | 87% | 1021 hPa | 0 mm | - | 211 W/m² | - |
| 1777733180 | 8.89° C | 89% | 1021 hPa | 0 mm | - | 232 W/m² | - |
| 1777732877 | 8.89° C | 86% | 1021.2 hPa | 0 mm | - | 122 W/m² | - |
| 1777732574 | 8.89° C | 86% | 1021 hPa | 0 mm | - | 92 W/m² | - |
| 1777732272 | 8.89° C | 85% | 1021.1 hPa | 0 mm | - | 81 W/m² | - |
| 1777731968 | 8.89° C | 86% | 1021 hPa | 0 mm | - | 87 W/m² | - |
| 1777731665 | 8.89° C | 86% | 1021.1 hPa | 0 mm | - | 82 W/m² | - |
| 1777731363 | 8.89° C | 85% | 1020.9 hPa | 0 mm | - | 83 W/m² | - |
| 1777731060 | 8.89° C | 85% | 1021.1 hPa | 0 mm | - | 87 W/m² | - |
| 1777730759 | 8.89° C | 86% | 1021 hPa | 0 mm | - | 112 W/m² | - |
| 1777730455 | 8.33° C | 86% | 1020.8 hPa | 0 mm | - | 119 W/m² | - |
| 1777730150 | 8.33° C | 85% | 1020.9 hPa | 0 mm | - | 75 W/m² | - |
| 1777729848 | 8.33° C | 85% | 1020.8 hPa | 0 mm | - | 44 W/m² | - |
| 1777729544 | 8.89° C | 84% | 1020.8 hPa | 0 mm | - | 42 W/m² | - |
| 1777729241 | 8.89° C | 85% | 1020.7 hPa | 0 mm | - | 76 W/m² | - |
| 1777728938 | 8.33° C | 83% | 1020.6 hPa | 0 mm | - | 116 W/m² | - |
| 1777728635 | 8.33° C | 83% | 1020.7 hPa | 0 mm | - | 124 W/m² | - |
| 1777728332 | 8.33° C | 86% | 1020.7 hPa | 0 mm | - | 138 W/m² | - |
| 1777728029 | 8.33° C | 88% | 1020.7 hPa | 0 mm | - | 122 W/m² | - |
| 1777727726 | 8.33° C | 86% | 1020.6 hPa | 0 mm | - | 78 W/m² | - |
| 1777727422 | 7.78° C | 85% | 1020.6 hPa | 0 mm | - | 76 W/m² | - |
| 1777727120 | 7.78° C | 86% | 1020.5 hPa | 0 mm | - | 96 W/m² | - |
| 1777726818 | 7.78° C | 87% | 1020.4 hPa | 0 mm | - | 57 W/m² | - |
| 1777726514 | 7.78° C | 87% | 1020.6 hPa | 0 mm | - | 58 W/m² | - |
* Rain latest hour (hover to see other rain measurements)
** Current wind speed in m/s (hover to see current wind gust speed)